Location: Estes Park
(40.3770°N, 105.5210°W)
Time: 17:04:00
(UTC-06:00)

Tiangong 1 - Pass Details

Date: 11 October 2017
Orbit: 292 x 319 km, 42.8° (Epoch: 22 October)

Event Time Altitude Azimuth Distance (km) Brightness Sun altitude
Rises 20:35:44 0° 286° (WNW) 2,027 6.1 -25.1°
Reaches altitude 10° 20:37:43 10° 286° (WNW) 1,191 4.6 -25.5°
Enters shadow 20:38:12 14° 285° (WNW) 990 4.1 -25.6°
